AAL2643 KJFK-KCLT

Flight info

Callsign AAL2643
Flight time 1h 28m
Altitude 38000
Route RBV Q430 COPES Q75 GVE AIROW CHSLY6
Aircraft B38M/M-SDE1FGHILORVWXY/HB1

Departure

Time 2026-05-08 22:04
Airport John F. Kennedy International Airport (KJFK)

Arrival

Time 2026-05-08 23:33
Airport Charlotte Douglas International Airport (KCLT)
Time Latitude Longitude Altitude Speed Heading
2026-05-08 21:30 40.64782 -73.79349 21 ft 0 kts 152°
2026-05-08 21:49 40.64788 -73.79353 20 ft 2 kts 154°
2026-05-08 21:49 40.64806 -73.79362 24 ft 3 kts 163°
2026-05-08 21:50 40.64823 -73.79369 21 ft 3 kts 163°
2026-05-08 21:50 40.64840 -73.79371 21 ft 3 kts 200°
2026-05-08 21:50 40.64855 -73.79358 21 ft 3 kts 234°
2026-05-08 21:50 40.64861 -73.79345 24 ft 0 kts 240°
2026-05-08 21:52 40.64860 -73.79348 23 ft 2 kts 240°
2026-05-08 21:52 40.64824 -73.79432 22 ft 18 kts 241°
2026-05-08 21:52 40.64770 -73.79560 22 ft 9 kts 240°
2026-05-08 21:53 40.64765 -73.79571 20 ft 0 kts 241°
2026-05-08 21:53 40.64763 -73.79575 20 ft 2 kts 241°
2026-05-08 21:53 40.64752 -73.79602 20 ft 5 kts 241°
2026-05-08 21:54 40.64730 -73.79655 20 ft 8 kts 241°
2026-05-08 21:54 40.64696 -73.79715 23 ft 8 kts 206°
2026-05-08 21:54 40.64661 -73.79706 22 ft 9 kts 148°
2026-05-08 21:54 40.64603 -73.79653 22 ft 11 kts 144°
2026-05-08 21:55 40.64509 -73.79593 25 ft 23 kts 177°
2026-05-08 21:55 40.64290 -73.79598 25 ft 40 kts 184°
2026-05-08 21:55 40.63985 -73.79508 23 ft 52 kts 128°
2026-05-08 21:56 40.63631 -73.78731 25 ft 37 kts 121°
2026-05-08 21:56 40.63509 -73.78461 24 ft 33 kts 121°
2026-05-08 21:56 40.63394 -73.78208 24 ft 28 kts 121°
2026-05-08 21:56 40.63328 -73.77975 24 ft 22 kts 87°
2026-05-08 21:57 40.63326 -73.77844 26 ft 13 kts 121°
2026-05-08 21:57 40.63275 -73.77732 26 ft 17 kts 121°
2026-05-08 21:57 40.63207 -73.77582 28 ft 21 kts 120°
2026-05-08 21:57 40.63132 -73.77417 26 ft 15 kts 121°
2026-05-08 21:58 40.63079 -73.77299 24 ft 15 kts 121°
2026-05-08 21:58 40.63019 -73.77167 23 ft 17 kts 121°
2026-05-08 21:58 40.62994 -73.77112 25 ft 4 kts 120°
2026-05-08 21:58 40.62971 -73.77078 25 ft 6 kts 163°
2026-05-08 21:59 40.62969 -73.77078 25 ft 0 kts 168°
2026-05-08 21:59 40.62968 -73.77077 25 ft 0 kts 168°
2026-05-08 22:00 40.62956 -73.77078 23 ft 2 kts 200°
2026-05-08 22:00 40.62938 -73.77094 24 ft 4 kts 214°
2026-05-08 22:00 40.62909 -73.77117 25 ft 5 kts 210°
2026-05-08 22:00 40.62889 -73.77132 26 ft 1 kts 210°
2026-05-08 22:01 40.62889 -73.77133 26 ft 0 kts 210°
2026-05-08 22:01 40.62879 -73.77140 24 ft 5 kts 210°
2026-05-08 22:01 40.62824 -73.77184 27 ft 10 kts 219°
2026-05-08 22:01 40.62824 -73.77230 26 ft 0 kts 302°
2026-05-08 22:03 40.62886 -73.77367 28 ft 52 kts 300°
2026-05-08 22:04 40.63208 -73.78078 25 ft 126 kts 301°
2026-05-08 22:04 40.63740 -73.79263 237 ft 162 kts 306°
2026-05-08 22:04 40.64331 -73.80548 1062 ft 165 kts 300°
2026-05-08 22:04 40.64948 -73.81882 1729 ft 183 kts 298°
2026-05-08 22:05 40.65432 -73.83508 2374 ft 198 kts 277°
2026-05-08 22:05 40.65246 -73.85292 3286 ft 205 kts 247°
2026-05-08 22:05 40.64274 -73.86668 4138 ft 214 kts 211°
2026-05-08 22:05 40.62846 -73.87270 5211 ft 213 kts 198°
2026-05-08 22:06 40.61419 -73.87831 6080 ft 214 kts 209°
2026-05-08 22:06 40.60074 -73.88610 6978 ft 213 kts 212°
2026-05-08 22:06 40.58753 -73.89554 7720 ft 218 kts 220°
2026-05-08 22:06 40.57491 -73.90716 8524 ft 222 kts 223°
2026-05-08 22:07 40.56202 -73.91922 9104 ft 239 kts 221°
2026-05-08 22:07 40.54768 -73.93223 9587 ft 259 kts 221°
2026-05-08 22:07 40.53229 -73.94586 10210 ft 270 kts 221°
2026-05-08 22:07 40.51621 -73.95997 10701 ft 287 kts 221°
2026-05-08 22:08 40.49908 -73.97488 10900 ft 306 kts 220°
2026-05-08 22:08 40.48106 -73.99043 10933 ft 312 kts 220°
2026-05-08 22:08 40.46274 -74.00620 10967 ft 315 kts 220°
2026-05-08 22:08 40.44433 -74.02205 10967 ft 316 kts 220°
2026-05-08 22:09 40.42702 -74.03894 11025 ft 310 kts 232°
2026-05-08 22:09 40.41463 -74.06161 11817 ft 302 kts 245°
2026-05-08 22:09 40.40315 -74.08508 12638 ft 307 kts 244°
2026-05-08 22:09 40.39150 -74.10876 13546 ft 310 kts 245°
2026-05-08 22:10 40.37979 -74.13269 14353 ft 313 kts 246°
2026-05-08 22:10 40.36809 -74.15666 15103 ft 318 kts 245°
2026-05-08 22:10 40.35605 -74.18134 15898 ft 322 kts 245°
2026-05-08 22:10 40.34387 -74.20632 16646 ft 327 kts 245°
2026-05-08 22:11 40.33163 -74.23139 16915 ft 331 kts 245°
2026-05-08 22:11 40.31921 -74.25682 16990 ft 330 kts 245°
2026-05-08 22:11 40.30676 -74.28230 16996 ft 330 kts 245°
2026-05-08 22:11 40.29452 -74.30733 16990 ft 330 kts 245°
2026-05-08 22:12 40.28212 -74.33267 16990 ft 330 kts 245°
2026-05-08 22:12 40.26970 -74.35801 16969 ft 330 kts 244°
2026-05-08 22:12 40.25725 -74.38341 17036 ft 332 kts 244°
2026-05-08 22:12 40.24488 -74.40861 17768 ft 332 kts 244°
2026-05-08 22:13 40.23225 -74.43433 18468 ft 337 kts 244°
2026-05-08 22:13 40.21948 -74.46032 19124 ft 339 kts 244°
2026-05-08 22:13 40.20757 -74.48656 19803 ft 335 kts 253°
2026-05-08 22:13 40.20221 -74.51577 20429 ft 330 kts 267°
2026-05-08 22:14 40.19932 -74.54547 21016 ft 334 kts 266°
2026-05-08 22:14 40.19658 -74.57570 21684 ft 336 kts 267°
2026-05-08 22:14 40.19396 -74.60625 22341 ft 338 kts 267°
2026-05-08 22:14 40.19141 -74.63703 22967 ft 340 kts 267°
2026-05-08 22:15 40.18892 -74.66796 23578 ft 343 kts 267°
2026-05-08 22:15 40.18643 -74.69910 24087 ft 345 kts 267°
2026-05-08 22:15 40.18397 -74.73011 24607 ft 346 kts 268°
2026-05-08 22:15 40.18145 -74.76164 25128 ft 348 kts 268°
2026-05-08 22:16 40.17892 -74.79329 25635 ft 350 kts 268°
2026-05-08 22:16 40.17637 -74.82507 26126 ft 352 kts 268°
2026-05-08 22:16 40.17380 -74.85706 26614 ft 354 kts 268°
2026-05-08 22:16 40.17124 -74.88874 27076 ft 356 kts 268°
2026-05-08 22:17 40.16862 -74.92111 27543 ft 358 kts 268°
2026-05-08 22:17 40.16598 -74.95356 28011 ft 360 kts 268°
2026-05-08 22:17 40.16331 -74.98626 28455 ft 362 kts 268°
2026-05-08 22:17 40.16062 -75.01910 28917 ft 363 kts 268°
2026-05-08 22:18 40.15795 -75.05160 29328 ft 365 kts 268°
2026-05-08 22:18 40.15520 -75.08492 29753 ft 367 kts 268°
2026-05-08 22:18 40.15245 -75.11822 30160 ft 369 kts 268°
2026-05-08 22:18 40.14970 -75.15128 30482 ft 371 kts 268°
2026-05-08 22:19 40.14689 -75.18498 30877 ft 371 kts 268°
2026-05-08 22:19 40.14409 -75.21844 31376 ft 369 kts 268°
2026-05-08 22:19 40.14130 -75.25173 31871 ft 367 kts 268°
2026-05-08 22:19 40.13854 -75.28446 32358 ft 365 kts 268°
2026-05-08 22:20 40.13577 -75.31740 32851 ft 363 kts 268°
2026-05-08 22:20 40.13233 -75.35019 33337 ft 365 kts 261°
2026-05-08 22:20 40.12241 -75.38121 33834 ft 377 kts 246°
2026-05-08 22:20 40.10587 -75.40852 34247 ft 387 kts 239°
2026-05-08 22:21 40.08802 -75.43459 34560 ft 388 kts 238°
2026-05-08 22:21 40.06979 -75.46061 34970 ft 387 kts 238°
2026-05-08 22:21 40.05139 -75.48649 35352 ft 386 kts 238°
2026-05-08 22:21 40.03325 -75.51179 35711 ft 386 kts 237°
2026-05-08 22:22 40.01485 -75.53729 36055 ft 385 kts 237°
2026-05-08 22:22 39.99640 -75.56280 36325 ft 384 kts 237°
2026-05-08 22:22 39.97832 -75.58776 36765 ft 381 kts 237°
2026-05-08 22:22 39.96005 -75.61295 37165 ft 379 kts 237°
2026-05-08 22:23 39.94192 -75.63794 37500 ft 378 kts 237°
2026-05-08 22:23 39.92389 -75.66283 37819 ft 376 kts 238°
2026-05-08 22:23 39.90747 -75.68874 37930 ft 373 kts 240°
2026-05-08 22:24 39.87462 -75.74101 37944 ft 371 kts 240°
2026-05-08 22:24 39.84166 -75.79298 37944 ft 371 kts 240°
2026-05-08 22:25 39.80914 -75.84497 37943 ft 371 kts 240°
2026-05-08 22:25 39.77663 -75.89678 37937 ft 371 kts 240°
2026-05-08 22:26 39.74404 -75.94863 37944 ft 371 kts 240°
2026-05-08 22:26 39.71130 -76.00062 37946 ft 371 kts 240°
2026-05-08 22:27 39.67845 -76.05271 37953 ft 371 kts 240°
2026-05-08 22:27 39.64579 -76.10441 37946 ft 371 kts 240°
2026-05-08 22:28 39.61301 -76.15620 37953 ft 369 kts 239°
2026-05-08 22:28 39.58022 -76.20694 37942 ft 368 kts 239°
2026-05-08 22:29 39.54715 -76.25789 37943 ft 368 kts 239°
2026-05-08 22:29 39.51409 -76.30878 37946 ft 368 kts 239°
2026-05-08 22:30 39.48122 -76.35928 37941 ft 368 kts 239°
2026-05-08 22:30 39.44606 -76.40788 37883 ft 373 kts 235°
2026-05-08 22:31 39.40939 -76.45561 37949 ft 373 kts 236°
2026-05-08 22:31 39.37316 -76.50308 37966 ft 372 kts 236°
2026-05-08 22:32 39.33685 -76.55066 37957 ft 372 kts 235°
2026-05-08 22:32 39.30039 -76.59836 37947 ft 372 kts 235°
2026-05-08 22:33 39.26407 -76.64579 37942 ft 372 kts 235°
2026-05-08 22:33 39.22754 -76.69344 37940 ft 373 kts 235°
2026-05-08 22:34 39.19110 -76.74089 37944 ft 373 kts 235°
2026-05-08 22:34 39.15442 -76.78857 37983 ft 373 kts 235°
2026-05-08 22:35 39.11773 -76.83619 37977 ft 373 kts 235°
2026-05-08 22:35 39.08123 -76.88349 37958 ft 373 kts 235°
2026-05-08 22:36 39.04471 -76.93076 37930 ft 373 kts 235°
2026-05-08 22:36 39.00796 -76.97826 37949 ft 373 kts 235°
2026-05-08 22:37 38.97147 -77.02525 37952 ft 373 kts 235°
2026-05-08 22:37 38.93461 -77.07267 37936 ft 373 kts 235°
2026-05-08 22:38 38.89802 -77.11967 37941 ft 373 kts 235°
2026-05-08 22:38 38.86130 -77.16676 37899 ft 373 kts 236°
2026-05-08 22:39 38.82477 -77.21353 37934 ft 370 kts 236°
2026-05-08 22:39 38.78841 -77.26002 37922 ft 369 kts 236°
2026-05-08 22:40 38.75204 -77.30646 37933 ft 370 kts 236°
2026-05-08 22:40 38.72074 -77.34438 37941 ft 374 kts 233°
2026-05-08 22:41 38.68202 -77.38896 37945 ft 373 kts 233°
2026-05-08 22:41 38.64375 -77.43321 37967 ft 368 kts 234°
2026-05-08 22:42 38.60580 -77.47706 37961 ft 365 kts 234°
2026-05-08 22:42 38.56820 -77.52044 37956 ft 366 kts 234°
2026-05-08 22:43 38.53031 -77.56410 37953 ft 366 kts 234°
2026-05-08 22:43 38.49237 -77.60774 37958 ft 366 kts 234°
2026-05-08 22:44 38.45479 -77.65091 37914 ft 363 kts 234°
2026-05-08 22:44 38.41740 -77.69380 37949 ft 360 kts 234°
2026-05-08 22:45 38.38004 -77.73659 37960 ft 360 kts 234°
2026-05-08 22:45 38.34284 -77.77914 37962 ft 360 kts 234°
2026-05-08 22:46 38.30545 -77.82183 37958 ft 360 kts 234°
2026-05-08 22:46 38.26821 -77.86431 37953 ft 360 kts 234°
2026-05-08 22:47 38.23096 -77.90673 37949 ft 361 kts 234°
2026-05-08 22:47 38.19342 -77.94941 37952 ft 360 kts 234°
2026-05-08 22:48 38.15620 -77.99167 37947 ft 359 kts 234°
2026-05-08 22:48 38.11882 -78.03406 37952 ft 359 kts 234°
2026-05-08 22:49 38.08167 -78.07612 37953 ft 360 kts 234°
2026-05-08 22:49 38.02563 -78.13949 37946 ft 358 kts 234°
2026-05-08 22:50 38.00838 -78.16166 37954 ft 345 kts 242°
2026-05-08 22:50 37.99274 -78.18512 37942 ft 349 kts 240°
2026-05-08 22:50 37.96081 -78.23106 37979 ft 349 kts 240°
2026-05-08 22:51 37.92835 -78.27724 37967 ft 349 kts 239°
2026-05-08 22:51 37.89594 -78.32321 37966 ft 349 kts 239°
2026-05-08 22:52 37.86364 -78.36892 37966 ft 350 kts 239°
2026-05-08 22:52 37.83121 -78.41477 37966 ft 349 kts 239°
2026-05-08 22:53 37.79865 -78.46072 37976 ft 350 kts 239°
2026-05-08 22:53 37.76610 -78.50661 37972 ft 350 kts 239°
2026-05-08 22:54 37.73368 -78.55224 37975 ft 350 kts 239°
2026-05-08 22:54 37.70130 -78.59775 37974 ft 349 kts 239°
2026-05-08 22:55 37.66881 -78.64336 37979 ft 350 kts 239°
2026-05-08 22:55 37.63619 -78.68907 37951 ft 349 kts 239°
2026-05-08 22:56 37.60403 -78.73408 37984 ft 346 kts 239°
2026-05-08 22:56 37.57169 -78.77928 37984 ft 345 kts 239°
2026-05-08 22:57 37.53958 -78.82410 37989 ft 345 kts 239°
2026-05-08 22:57 37.50732 -78.86907 37979 ft 345 kts 239°
2026-05-08 22:58 37.47526 -78.91365 37990 ft 344 kts 239°
2026-05-08 22:58 37.44300 -78.95851 37999 ft 345 kts 239°
2026-05-08 22:59 37.41100 -79.00294 38001 ft 342 kts 239°
2026-05-08 22:59 37.37890 -79.04742 37992 ft 342 kts 240°
2026-05-08 23:00 37.34712 -79.09143 37985 ft 341 kts 239°
2026-05-08 23:00 37.31511 -79.13567 37991 ft 341 kts 239°
2026-05-08 23:01 37.28317 -79.17978 37993 ft 342 kts 239°
2026-05-08 23:01 37.25114 -79.22371 37999 ft 345 kts 236°
2026-05-08 23:02 37.23175 -79.24271 38013 ft 358 kts 230°
2026-05-08 23:02 37.21169 -79.26117 37951 ft 357 kts 231°
2026-05-08 23:02 37.17188 -79.29746 37998 ft 354 kts 231°
2026-05-08 23:03 37.13179 -79.33365 37999 ft 355 kts 230°
2026-05-08 23:03 37.09165 -79.36979 37998 ft 355 kts 230°
2026-05-08 23:04 37.05169 -79.40570 37997 ft 355 kts 230°
2026-05-08 23:04 37.01110 -79.44145 38004 ft 358 kts 229°
2026-05-08 23:05 36.97014 -79.47603 37996 ft 355 kts 229°
2026-05-08 23:05 36.92927 -79.51065 38006 ft 355 kts 229°
2026-05-08 23:06 36.88831 -79.54530 38009 ft 355 kts 229°
2026-05-08 23:06 36.84735 -79.57993 38015 ft 355 kts 229°
2026-05-08 23:07 36.80666 -79.61424 38011 ft 356 kts 229°
2026-05-08 23:07 36.76566 -79.64861 37648 ft 352 kts 229°
2026-05-08 23:08 36.74513 -79.66582 37058 ft 348 kts 229°
2026-05-08 23:08 36.72521 -79.68251 36587 ft 343 kts 229°
2026-05-08 23:08 36.70577 -79.69877 36092 ft 339 kts 229°
2026-05-08 23:08 36.68627 -79.71509 35536 ft 337 kts 229°
2026-05-08 23:09 36.66657 -79.73159 34968 ft 344 kts 229°
2026-05-08 23:09 36.64659 -79.74827 34384 ft 347 kts 229°
2026-05-08 23:09 36.62651 -79.76502 33771 ft 348 kts 229°
2026-05-08 23:09 36.60628 -79.78191 33117 ft 353 kts 229°
2026-05-08 23:10 36.58579 -79.79897 32630 ft 356 kts 228°
2026-05-08 23:10 36.56511 -79.81622 32211 ft 360 kts 228°
2026-05-08 23:10 36.54424 -79.83360 31721 ft 362 kts 228°
2026-05-08 23:10 36.52332 -79.85100 31283 ft 362 kts 228°
2026-05-08 23:11 36.50235 -79.86844 30823 ft 362 kts 228°
2026-05-08 23:11 36.48142 -79.88583 30304 ft 362 kts 228°
2026-05-08 23:11 36.46047 -79.90322 29770 ft 363 kts 227°
2026-05-08 23:11 36.43947 -79.92063 29274 ft 363 kts 227°
2026-05-08 23:12 36.41855 -79.93798 28791 ft 362 kts 226°
2026-05-08 23:12 36.39761 -79.95533 28331 ft 362 kts 226°
2026-05-08 23:12 36.37667 -79.97268 27859 ft 361 kts 226°
2026-05-08 23:12 36.35579 -79.98996 27394 ft 361 kts 225°
2026-05-08 23:13 36.33491 -80.00722 26865 ft 360 kts 225°
2026-05-08 23:13 36.31437 -80.02417 26280 ft 357 kts 224°
2026-05-08 23:13 36.29381 -80.04114 25867 ft 353 kts 224°
2026-05-08 23:13 36.27326 -80.05811 25385 ft 356 kts 224°
2026-05-08 23:14 36.25257 -80.07516 24818 ft 357 kts 223°
2026-05-08 23:14 36.23185 -80.09222 24268 ft 357 kts 222°
2026-05-08 23:14 36.21122 -80.10920 23796 ft 356 kts 222°
2026-05-08 23:14 36.19061 -80.12618 23239 ft 356 kts 221°
2026-05-08 23:15 36.17001 -80.14312 22643 ft 355 kts 221°
2026-05-08 23:15 36.14929 -80.16014 21826 ft 361 kts 221°
2026-05-08 23:15 36.12821 -80.17745 20998 ft 364 kts 220°
2026-05-08 23:15 36.10732 -80.19459 20232 ft 357 kts 220°
2026-05-08 23:16 36.08682 -80.21141 19460 ft 350 kts 221°
2026-05-08 23:16 36.06669 -80.22790 18762 ft 344 kts 220°
2026-05-08 23:16 36.04689 -80.24412 18053 ft 339 kts 220°
2026-05-08 23:16 36.02740 -80.26006 17294 ft 334 kts 220°
2026-05-08 23:17 36.00820 -80.27576 16718 ft 324 kts 220°
2026-05-08 23:17 35.98973 -80.29089 16385 ft 317 kts 220°
2026-05-08 23:17 35.97134 -80.30591 15896 ft 316 kts 220°
2026-05-08 23:17 35.95309 -80.32083 15528 ft 313 kts 219°
2026-05-08 23:18 35.93498 -80.33561 15165 ft 311 kts 219°
2026-05-08 23:18 35.91700 -80.35028 14801 ft 309 kts 219°
2026-05-08 23:18 35.89914 -80.36485 14450 ft 307 kts 219°
2026-05-08 23:18 35.88142 -80.37930 14097 ft 304 kts 219°
2026-05-08 23:19 35.86397 -80.39350 13918 ft 296 kts 219°
2026-05-08 23:19 35.84698 -80.40732 13765 ft 288 kts 219°
2026-05-08 23:19 35.83075 -80.42094 13588 ft 278 kts 223°
2026-05-08 23:19 35.81682 -80.43708 13133 ft 276 kts 235°
2026-05-08 23:20 35.80404 -80.45555 12507 ft 291 kts 232°
2026-05-08 23:20 35.79027 -80.47463 11883 ft 303 kts 232°
2026-05-08 23:20 35.77617 -80.49425 11405 ft 306 kts 232°
2026-05-08 23:20 35.76210 -80.51390 11021 ft 304 kts 232°
2026-05-08 23:21 35.74823 -80.53329 10776 ft 298 kts 232°
2026-05-08 23:21 35.73484 -80.55199 10623 ft 282 kts 232°
2026-05-08 23:21 35.72227 -80.56957 10476 ft 265 kts 232°
2026-05-08 23:21 35.71046 -80.58608 10334 ft 249 kts 232°
2026-05-08 23:22 35.69922 -80.60179 10224 ft 244 kts 233°
2026-05-08 23:22 35.68766 -80.61791 10110 ft 257 kts 232°
2026-05-08 23:22 35.67571 -80.63458 9838 ft 262 kts 232°
2026-05-08 23:22 35.66768 -80.64575 9598 ft 264 kts 232°
2026-05-08 23:23 35.65152 -80.66827 9165 ft 264 kts 232°
2026-05-08 23:23 35.63939 -80.68515 8860 ft 263 kts 231°
2026-05-08 23:23 35.62736 -80.70191 8550 ft 260 kts 231°
2026-05-08 23:23 35.61541 -80.71852 8265 ft 258 kts 231°
2026-05-08 23:24 35.60354 -80.73503 7974 ft 256 kts 230°
2026-05-08 23:24 35.59180 -80.75135 7683 ft 254 kts 230°
2026-05-08 23:24 35.58389 -80.76235 7488 ft 253 kts 229°
2026-05-08 23:24 35.57229 -80.77845 7201 ft 251 kts 229°
2026-05-08 23:25 35.56077 -80.79444 6921 ft 249 kts 229°
2026-05-08 23:25 35.54930 -80.81037 6635 ft 249 kts 229°
2026-05-08 23:25 35.53785 -80.82627 6343 ft 248 kts 228°
2026-05-08 23:25 35.52640 -80.84213 6056 ft 248 kts 228°
2026-05-08 23:26 35.51494 -80.85801 6005 ft 249 kts 228°
2026-05-08 23:26 35.50375 -80.87350 6024 ft 236 kts 228°
2026-05-08 23:26 35.49314 -80.88819 6007 ft 222 kts 228°
2026-05-08 23:26 35.48315 -80.90198 5809 ft 212 kts 228°
2026-05-08 23:27 35.47344 -80.91542 5441 ft 210 kts 228°
2026-05-08 23:27 35.46394 -80.92859 5135 ft 207 kts 228°
2026-05-08 23:27 35.45436 -80.94189 4697 ft 209 kts 225°
2026-05-08 23:27 35.44255 -80.95142 4305 ft 205 kts 194°
2026-05-08 23:28 35.42849 -80.95234 4059 ft 203 kts 178°
2026-05-08 23:28 35.41407 -80.95156 4043 ft 204 kts 178°
2026-05-08 23:28 35.40075 -80.95071 4047 ft 180 kts 178°
2026-05-08 23:28 35.38874 -80.94991 3927 ft 169 kts 178°
2026-05-08 23:29 35.37707 -80.94914 3705 ft 167 kts 178°
2026-05-08 23:29 35.36567 -80.94825 3499 ft 166 kts 177°
2026-05-08 23:29 35.35417 -80.94730 3276 ft 165 kts 178°
2026-05-08 23:29 35.34270 -80.94632 3044 ft 165 kts 177°
2026-05-08 23:30 35.33148 -80.94535 2897 ft 155 kts 177°
2026-05-08 23:30 35.32106 -80.94445 2695 ft 147 kts 178°
2026-05-08 23:30 35.31105 -80.94360 2487 ft 142 kts 177°
2026-05-08 23:30 35.30121 -80.94275 2272 ft 141 kts 176°
2026-05-08 23:31 35.29140 -80.94190 2080 ft 141 kts 177°
2026-05-08 23:31 35.28165 -80.94099 1889 ft 140 kts 177°
2026-05-08 23:31 35.27190 -80.94013 1722 ft 140 kts 177°
2026-05-08 23:31 35.26207 -80.93924 1494 ft 141 kts 178°
2026-05-08 23:32 35.25231 -80.93852 1312 ft 142 kts 178°
2026-05-08 23:32 35.24236 -80.93774 1153 ft 144 kts 177°
2026-05-08 23:32 35.23234 -80.93678 936 ft 145 kts 177°
2026-05-08 23:32 35.22241 -80.93598 736 ft 138 kts 176°
2026-05-08 23:33 35.21476 -80.93528 724 ft 78 kts 176°
2026-05-08 23:33 35.21064 -80.93506 722 ft 41 kts 185°
2026-05-08 23:33 35.20940 -80.93590 723 ft 15 kts 293°
2026-05-08 23:33 35.21036 -80.93627 721 ft 16 kts 355°
2026-05-08 23:34 35.21160 -80.93638 723 ft 19 kts 356°
2026-05-08 23:34 35.21304 -80.93650 724 ft 23 kts 356°
2026-05-08 23:34 35.21477 -80.93743 725 ft 31 kts 317°
2026-05-08 23:34 35.21649 -80.93929 726 ft 34 kts 318°
2026-05-08 23:35 35.21753 -80.94027 727 ft 9 kts 336°
2026-05-08 23:35 35.21874 -80.94105 729 ft 20 kts 347°
2026-05-08 23:35 35.21985 -80.94106 729 ft 5 kts 356°
2026-05-08 23:35 35.22005 -80.94108 729 ft 0 kts 356°